[[{"header":{"parameterUnit":"m.s-1","parameterCategory":1,"la1":30.2991,"la2":30.254,"lo1":-89.0895,"lo2":-89.0444,"dy":0.0017,"dx":0.0017,"nx":28,"ny":28,"refTime":"2024-07-19T03:00:00:Z","depth":0,"parameterNumber":2,"parameterNumberName":"U-component_of_WINDS"},"data":[0,0,0,0,0,0,0,0,0,0,0,0,0,0,0,0,0,0,0,0,0,0,0,0,0,0,0,0,0,0,0,0,0,0,0,0,0,0,0,0,0,0,0,0,0,0,0,0,0,0,0,0,0,0,0,0,0,0,-1.9131,-1.9131,0,-1.915,-1.915,-1.915,-1.9097,-1.9095,-1.9094,-1.9092,-1.9113,-1.9115,-1.9117,0,0,0,0,0,0,0,0,0,0,0,0,0,-1.9051,-1.9053,-1.9131,-1.9131,-1.9131,-1.915,-1.915,-1.915,-1.9097,-1.9095,-1.9093,-1.9091,-1.9112,-1.9115,-1.9117,0,0,0,0,0,0,0,0,0,0,0,0,0,-1.9079,-1.9053,-1.9131,-1.9107,-1.9105,-1.915,-1.915,-1.915,-1.9098,-1.9095,-1.9093,-1.909,-1.9111,-1.9114,-1.9118,-1.9186,0,0,-1.9127,-1.9129,0,0,0,0,0,0,0,0,-1.9078,-1.9082,-1.911,-1.9109,-1.9107,-1.9118,-1.9129,-1.9163,-1.9098,-1.9101,-1.9092,-1.9089,-1.9117,-1.9119,-1.9128,-1.9187,-1.9188,-1.9127,-1.9129,-1.9131,-1.9132,0,0,0,0,0,0,0,-1.9076,-1.9081,-1.9138,-1.9111,-1.9108,-1.9096,-1.9098,-1.9136,-1.9122,-1.91,-1.9096,-1.9099,-1.9115,-1.9126,-1.9129,-1.9189,-1.9127,-1.913,-1.9132,-1.9133,-1.9307,-1.9309,0,0,0,0,0,0,-1.9077,-1.908,-1.9138,-1.9139,-1.9086,-1.91,-1.9101,-1.9117,-1.9122,-1.912,-1.9101,-1.9097,-1.9121,-1.9125,-1.9129,-1.921,-1.9131,-1.9134,-1.9135,-1.9304,-1.9307,-1.931,0,0,0,0,0,0,-1.9075,-1.9082,-1.9137,-1.9108,-1.9114,-1.9104,-1.9122,-1.9119,-1.9129,-1.9123,-1.912,-1.9114,-1.912,-1.9125,-1.9173,-1.921,-1.9135,-1.9138,-1.9301,-1.9305,-1.9309,-1.9373,0,0,0,0,0,0,-1.9073,-1.9082,-1.9107,-1.9109,-1.9116,-1.9179,-1.9124,-1.9121,-1.9134,-1.9128,-1.9134,-1.9132,-1.9118,-1.9168,-1.9176,-1.9213,-1.914,-1.9297,-1.9303,-1.9308,-1.9367,-1.9379,-1.9388,0,0,0,0,0,-1.9071,-1.9125,-1.9109,-1.9116,-1.9147,-1.9182,-1.9186,-1.9167,-1.9137,-1.9163,-1.916,-1.9132,-1.9206,-1.9174,-1.9182,-1.922,-1.9295,-1.9301,-1.9307,-1.9363,-1.9376,-1.9388,0,0,0,0,0,0,-1.9127,-1.9124,-1.9107,-1.9163,-1.9173,-1.9173,-1.9204,-1.9183,-1.9201,-1.9195,-1.9173,-1.9175,-1.9227,-1.9229,-1.9194,-1.9288,-1.9245,-1.9253,-1.9285,-1.9298,-1.9308,-1.9305,-1.9143,0,0,0,0,0,-1.9146,-1.9173,-1.917,-1.922,-1.9226,-1.9215,-1.9229,-1.9215,-1.9224,-1.9228,-1.9228,-1.9239,-1.9264,-1.9281,-1.9305,-1.9369,-1.9369,-1.9399,-1.941,-1.9419,-1.9425,-1.946,-1.9473,-1.9331,-1.9331,-1.933,0,0,-1.9185,-1.9187,-1.9206,-1.9231,-1.9237,-1.9267,-1.9218,-1.9251,-1.9273,-1.9233,-1.9278,-1.9279,-1.929,-1.9347,-1.9372,-1.935,-1.9465,-1.9426,-1.9433,-1.9435,-1.9468,-1.9481,-1.9493,-1.9335,-1.9334,-1.9333,0,0,-1.9271,-1.9276,-1.9318,-1.9326,-1.9336,-1.9328,-1.9339,-1.9342,-1.9341,-1.9387,-1.9357,-1.9384,-1.9428,-1.9438,-1.9448,-1.9542,-1.9517,-1.955,-1.9604,-1.9638,-1.965,-1.9659,-1.9693,-1.9705,-1.9557,-1.9558,-1.9558,0,-1.9319,-1.9361,-1.9343,-1.9378,-1.9391,-1.9357,-1.94,-1.9408,-1.9426,-1.9436,-1.9411,-1.9467,-1.9472,-1.9531,-1.9554,-1.9564,-1.9576,-1.9548,-1.965,-1.9659,-1.9668,-1.9699,-1.9712,-1.9561,-1.9561,-1.9561,-1.956,0,-1.9419,-1.945,-1.9483,-1.9501,-1.9517,-1.9557,-1.9545,-1.9564,-1.955,-1.9545,-1.9593,-1.9598,-1.9622,-1.9636,-1.9622,-1.9693,-1.9679,-1.9653,-1.9609,-1.9686,-1.9715,-1.9727,-1.9567,-1.9566,-1.9564,-1.9563,0,0,-1.9538,-1.9547,-1.9559,-1.9567,-1.9577,-1.9601,-1.964,-1.9664,-1.9681,-1.9696,-1.9728,-1.9768,-1.9744,-1.9756,-1.9743,-1.9774,-1.9848,-1.9743,-1.9743,-1.9762,-1.9927,-1.9946,-1.996,-1.9833,-1.9835,-1.9837,-1.9926,0,-1.9622,-1.9687,-1.9673,-1.9738,-1.9766,-1.9736,-1.9771,-1.9781,-1.9779,-1.9804,-1.9802,-1.9831,-1.9797,-1.9805,-1.9834,-1.9832,-1.988,-1.9826,-1.9862,-1.9864,-1.9858,-1.9975,-1.9994,-2.0078,-1.9937,-1.9939,-1.994,0,-1.9728,-1.9747,-1.9814,-1.9821,-1.9833,-1.9864,-1.9885,-1.9909,-1.9922,-1.9918,-1.9934,-1.9916,-1.9956,-1.9914,-1.9969,-1.9932,-1.9947,-1.995,-1.9952,-1.9953,-1.9905,-1.9978,-2.0104,-2.0116,-1.9958,-1.9957,-1.9956,0,-1.9807,-1.9849,-1.9895,-1.9903,-1.9913,-1.9936,-1.9941,-1.9951,-1.9967,-1.9986,-1.9997,-2.0021,-2.0034,-2.0054,-2.0044,-2.0014,-2.0102,-2.0058,-2.01,-2.01,-2.0117,-2.0116,-2.0246,-2.013,-2.013,-2.013,-2.013,0,-1.9901,-1.9943,-1.9931,-1.9959,-2.0006,-1.9991,-2.0038,-2.004,-2.005,-2.0079,-2.0056,-2.0084,-2.007,-2.0097,-2.009,-2.0137,-2.0144,-2.0142,-2.014,-2.0143,-2.0143,-2.0151,-2.0144,-2.0133,-2.0132,-2.0132,-2.0131,0,-1.9995,-1.9989,-2.0037,-2.0043,-2.0046,-2.008,-2.0086,-2.0113,-2.0111,-2.0148,-2.0156,-2.0152,-2.0184,-2.0176,-2.0211,-2.0206,-2.0265,-2.0256,-2.0261,-2.0258,-2.03,-2.0295,-2.0438,-2.0456,-2.033,-2.0331,-2.0332,0,-2.0055,-2.0087,-2.0097,-2.0115,-2.0122,-2.0151,-2.0167,-2.0154,-2.0172,-2.0191,-2.0216,-2.0246,-2.0268,-2.032,-2.0321,-2.0348,-2.0338,-2.0386,-2.0342,-2.0345,-2.0338,-2.0335,-2.0338,-2.0394,-2.0396,-2.0397,-2.0398,0,-2.0161,-2.0157,-2.0181,-2.0205,-2.0225,-2.0243,-2.0259,-2.0275,-2.0264,-2.0287,-2.0318,-2.0336,-2.0372,-2.0401,-2.0427,-2.0433,-2.0414,-2.0413,-2.0423,-2.0426,-2.0427,-2.0427,-2.0283,-2.0409,-2.0407,-2.0407,-2.0406,-2.0406,-2.0239,-2.0266,-2.0278,-2.0306,-2.0317,-2.0334,-2.036,-2.0361,-2.0387,-2.0415,-2.0407,-2.0443,-2.0458,-2.049,-2.05,-2.0529,-2.0511,-2.0527,-2.0531,-2.0534,-2.0539,-2.0425,-2.0534,-2.0534,-2.0533,-2.0533,-2.0533,0,-2.0343,-2.035,-2.0376,-2.0399,-2.0422,-2.0403,-2.0421,-2.0441,-2.0473,-2.0488,-2.0512,-2.0549,-2.0579,-2.0584,-2.0612,-2.0635,-2.0627,-2.0642,-2.064,-2.0642,-2.0554,-2.0541,-2.0648,-2.0648,-2.0648,-2.0648,-2.0648,-2.0648,-2.0399,-2.0445,-2.0442,-2.0494,-2.0501,-2.0536,-2.0548,-2.0563,-2.0575,-2.0618,-2.0642,-2.0646,-2.0657,-2.0686,-2.0713,-2.0714,-2.0725,-2.0744,-2.0742,-2.0659,-2.0648,-2.0636,-2.0624,-2.0747,-2.0747,-2.0827,-2.0827,-2.0828]},{"header":{"parameterUnit":"m.s-1","parameterCategory":1,"la1":30.2991,"la2":30.254,"lo1":-89.0895,"lo2":-89.0444,"dy":0.0017,"dx":0.0017,"nx":28,"ny":28,"refTime":"2024-07-19T03:00:00:Z","depth":0,"parameterNumber":3,"parameterNumberName":"V-component_of_WINDS"},"data":[0,0,0,0,0,0,0,0,0,0,0,0,0,0,0,0,0,0,0,0,0,0,0,0,0,0,0,0,0,0,0,0,0,0,0,0,0,0,0,0,0,0,0,0,0,0,0,0,0,0,0,0,0,0,0,0,0,0,1.8958,1.8958,0,1.8977,1.8977,1.8977,1.9006,1.9007,1.9007,1.9008,1.9025,1.9025,1.9025,0,0,0,0,0,0,0,0,0,0,0,0,0,1.8946,1.8946,1.8958,1.8958,1.8958,1.8977,1.8977,1.8977,1.9006,1.9007,1.9007,1.9008,1.9025,1.9025,1.9025,0,0,0,0,0,0,0,0,0,0,0,0,0,1.8956,1.8946,1.8958,1.8975,1.8977,1.8977,1.8977,1.8977,1.9006,1.9007,1.9007,1.9008,1.9025,1.9025,1.9025,1.9009,0,0,1.9025,1.9025,0,0,0,0,0,0,0,0,1.8956,1.8957,1.8972,1.8974,1.8976,1.899,1.8979,1.8988,1.9006,1.8995,1.9008,1.9009,1.9013,1.9014,1.9016,1.901,1.9011,1.9025,1.9025,1.9025,1.9025,0,0,0,0,0,0,0,1.8955,1.8956,1.8965,1.8972,1.8975,1.8981,1.8984,1.8981,1.8999,1.8996,1.8998,1.9,1.9014,1.9015,1.9016,1.9011,1.9025,1.9025,1.9025,1.9025,1.8993,1.8992,0,0,0,0,0,0,1.8952,1.8955,1.8965,1.8966,1.8968,1.8981,1.8984,1.8985,1.8999,1.9002,1.8999,1.9001,1.9015,1.9016,1.9017,1.8998,1.9025,1.9025,1.9025,1.8994,1.8992,1.8992,0,0,0,0,0,0,1.8951,1.8952,1.8964,1.8961,1.8963,1.898,1.8981,1.8984,1.8986,1.9002,1.9005,1.8998,1.9016,1.9017,1.9011,1.8999,1.9025,1.9025,1.8994,1.8993,1.8992,1.8962,0,0,0,0,0,0,1.8951,1.8952,1.8947,1.8961,1.8963,1.8958,1.898,1.8984,1.8986,1.8989,1.9001,1.9004,1.9017,1.9011,1.9011,1.9,1.9025,1.8996,1.8994,1.8992,1.8964,1.896,1.8956,0,0,0,0,0,1.895,1.8937,1.8946,1.8947,1.8957,1.8957,1.8959,1.8974,1.8985,1.8979,1.8989,1.9003,1.9001,1.901,1.901,1.8999,1.8996,1.8994,1.8993,1.8966,1.896,1.8956,0,0,0,0,0,0,1.892,1.8939,1.8949,1.894,1.8947,1.8962,1.8955,1.8968,1.8971,1.8973,1.8992,1.8994,1.8986,1.8992,1.9002,1.8984,1.9001,1.8999,1.898,1.8975,1.8972,1.897,1.9025,0,0,0,0,0,1.8913,1.8912,1.8929,1.8919,1.8922,1.8938,1.8939,1.895,1.8957,1.896,1.897,1.8976,1.8977,1.8977,1.8978,1.8965,1.8968,1.8958,1.8954,1.8951,1.8948,1.8941,1.8937,1.8985,1.8985,1.8985,0,0,1.8897,1.8907,1.8905,1.8913,1.892,1.8918,1.894,1.8938,1.8936,1.896,1.8954,1.8962,1.897,1.896,1.8956,1.8965,1.8936,1.8948,1.8945,1.8945,1.8939,1.8934,1.893,1.8984,1.8984,1.8985,0,0,1.8867,1.8875,1.8867,1.8874,1.8883,1.8894,1.8892,1.8906,1.8911,1.8907,1.8924,1.8923,1.8924,1.8928,1.8931,1.8903,1.8916,1.8903,1.8882,1.8875,1.8871,1.8868,1.8857,1.8853,1.8901,1.8901,1.8901,0,1.8845,1.8844,1.8862,1.8858,1.8861,1.8883,1.8875,1.888,1.8889,1.889,1.89,1.8901,1.8908,1.89,1.8893,1.8895,1.8892,1.8901,1.887,1.8867,1.8864,1.8854,1.885,1.8899,1.8899,1.89,1.89,0,1.8817,1.8816,1.8809,1.8818,1.882,1.8814,1.883,1.883,1.8841,1.885,1.8845,1.8854,1.8858,1.8857,1.8868,1.885,1.8855,1.8867,1.8884,1.8858,1.8848,1.8845,1.8897,1.8897,1.8898,1.8898,0,0,1.8768,1.8787,1.8784,1.8788,1.8801,1.88,1.8795,1.8799,1.8798,1.8803,1.8799,1.8799,1.8811,1.8814,1.8826,1.882,1.8796,1.8833,1.8833,1.8825,1.8775,1.8765,1.876,1.8805,1.8804,1.8803,1.8774,0,1.874,1.8733,1.8748,1.8737,1.8736,1.8757,1.8752,1.8759,1.8768,1.8768,1.8778,1.8777,1.8793,1.8795,1.879,1.8799,1.8786,1.8802,1.88,1.8799,1.8796,1.8755,1.8744,1.8716,1.8771,1.877,1.877,0,1.8705,1.871,1.8699,1.8711,1.8711,1.8707,1.8712,1.8712,1.872,1.8727,1.873,1.8744,1.8739,1.8756,1.8749,1.876,1.876,1.8765,1.8764,1.8764,1.8782,1.8753,1.8708,1.8703,1.8764,1.8765,1.8765,0,1.8669,1.8673,1.8666,1.8669,1.8684,1.8681,1.8687,1.8696,1.8697,1.8701,1.8702,1.8705,1.8706,1.8708,1.8722,1.8733,1.8713,1.8732,1.8718,1.8718,1.8712,1.8712,1.8665,1.8714,1.8714,1.8714,1.8714,0,1.8635,1.8627,1.865,1.8646,1.8638,1.8656,1.8647,1.8655,1.8662,1.866,1.8678,1.8675,1.8694,1.8693,1.8704,1.8696,1.8697,1.8702,1.8705,1.87,1.8699,1.8699,1.8701,1.8713,1.8713,1.8713,1.8714,0,1.8593,1.8608,1.8603,1.8617,1.8621,1.8614,1.8626,1.8623,1.8633,1.863,1.863,1.8646,1.8645,1.866,1.8662,1.867,1.8657,1.8664,1.8654,1.8656,1.8641,1.8641,1.8592,1.8586,1.8639,1.8638,1.8638,0,1.857,1.8565,1.8579,1.8579,1.8584,1.8583,1.8585,1.8603,1.8603,1.8612,1.8607,1.8608,1.861,1.8608,1.862,1.8621,1.8628,1.861,1.8628,1.8623,1.8626,1.8626,1.8625,1.8606,1.8605,1.8605,1.8605,0,1.8527,1.8535,1.8537,1.8541,1.8542,1.8546,1.8551,1.8549,1.8569,1.8568,1.8568,1.857,1.8573,1.8573,1.8577,1.8583,1.8596,1.8599,1.8596,1.859,1.8584,1.8586,1.8642,1.86,1.86,1.8601,1.8601,1.8601,1.8493,1.8489,1.8498,1.8499,1.8505,1.8509,1.8507,1.8517,1.8517,1.8521,1.8532,1.853,1.8537,1.8544,1.8549,1.8547,1.8556,1.8551,1.855,1.8548,1.8545,1.8585,1.8548,1.8548,1.8548,1.8548,1.8548,0,1.845,1.8457,1.8458,1.8465,1.8465,1.8479,1.8486,1.8485,1.8483,1.849,1.8491,1.8491,1.8492,1.8503,1.8505,1.8501,1.8508,1.8501,1.8501,1.8502,1.8537,1.854,1.8496,1.8496,1.8496,1.8496,1.8496,1.8496,1.8428,1.8421,1.843,1.8426,1.8433,1.8432,1.8434,1.8438,1.8443,1.8442,1.8443,1.8451,1.8459,1.8462,1.8463,1.8466,1.8465,1.8457,1.8462,1.8495,1.85,1.8504,1.8506,1.8457,1.8457,1.8426,1.8426,1.8426]}]]